User: anonymous   Login
Location: Unspecified
(0.0000°N, 0.0000°E)
Time: 01:03:32
(UTC+00:00)
Language:

STARLINK-1928 - Orbit

View from above orbital plane
View from above orbital plane
View from above satellite
View from above satellite

Ground track
Ground track

The orbit is defined by the following mean orbital elements,

1 46758U          26145.58335647 +.00000000 +00000-0 +81384-3 0 00009
2 46758  53.0378 261.0559 0007473 296.9820 134.0499 15.87132718    06
Epoch (UTC): 25 May 2026 14:00:01
Eccentricity: 0.0007473
inclination: 53.0378°
perigee height: 305 km
apogee height: 315 km
right ascension of ascending node: 261.0559°
argument of perigee: 296.9820°
revolutions per day: 15.87132718
mean anomaly at epoch: 134.0499°

The dashed part of the orbit path shows where the satellite is in the earth's shadow,  

DLR